Terminal Aerodrome Forecast
Issued by NWS

Home | Current Version | Previous Version | Graphics & Text | Print | Product List | Glossary On
Versions: 1 2 3 4 5 6 7 8 9 10 11 12 13 14 15 16 17 18 19 20 21
000
FTUS43 KTOP 261400 AAA
TAFFOE
TAF AMD
KFOE 261452Z 2615/2712 19015G19KT P6SM SCT100
     FM261600 22014G22KT P6SM SCT030
     FM270000 25007KT P6SM SCT200=

USA.gov is the U.S. government's official web portal to all federal, state and local government web resources and services.